#�ϑ�����,���ϕ���,���ϕ���,�ő啗��,�ő啗����������,�ő�u�ԕ���,�ő�u�ԕ�����������
#(�N����),(m/s)   ,(16����),(m/s)   ,(16����)        ,(m/s)       ,(16����)            
2015/3/25 0:01,1.8,12,1.8,14,3.7,11
2015/3/25 0:02,2,12,2,12,7.7,10
2015/3/25 0:03,2.3,12,2.3,12,6.8,10
2015/3/25 0:04,2.4,12,2.4,12,3.5,9
2015/3/25 0:05,2.3,11,2.3,12,2.9,10
2015/3/25 0:06,2.2,11,2.3,12,1.5,9
2015/3/25 0:07,2.2,11,2.2,12,1.3,13
2015/3/25 0:08,2.2,11,2.2,12,2.4,12
2015/3/25 0:09,2.2,11,2.2,12,2.5,14
2015/3/25 0:10,2.1,11,2.2,12,2.7,14
2015/3/25 0:11,1.9,11,2.1,12,1.8,12
2015/3/25 0:12,1.6,11,1.9,12,2.7,9
2015/3/25 0:13,1.3,11,1.6,12,2.9,9
2015/3/25 0:14,1.4,11,1.4,11,3.9,10
2015/3/25 0:15,1.5,11,1.5,11,3.7,10
2015/3/25 0:16,1.5,11,1.5,11,3.5,10
2015/3/25 0:17,1.6,11,1.6,11,2.7,10
2015/3/25 0:18,1.7,11,1.7,11,2.2,11
2015/3/25 0:19,1.7,11,1.7,11,3.9,15
2015/3/25 0:20,1.7,11,1.7,11,4.3,16
2015/3/25 0:21,1.8,11,1.8,11,4.4,15
2015/3/25 0:22,1.9,11,1.9,11,2.9,12
2015/3/25 0:23,1.9,12,1.9,11,3,11
2015/3/25 0:24,1.9,12,1.9,11,3.2,10
2015/3/25 0:25,1.9,12,1.9,11,2.6,9
2015/3/25 0:26,1.9,11,1.9,11,2.5,9
2015/3/25 0:27,1.8,11,1.9,11,1.8,9
2015/3/25 0:28,1.7,11,1.8,11,0.4,16
2015/3/25 0:29,1.5,11,1.7,11,0.8,1
2015/3/25 0:30,1.4,11,1.4,11,1.8,16
2015/3/25 0:31,1.2,11,1.3,11,1.4,16
2015/3/25 0:32,1,12,1.2,11,0.9,1
2015/3/25 0:33,1,13,1,12,1.5,1
2015/3/25 0:34,0.8,14,0.9,12,1,2
2015/3/25 0:35,0.7,15,0.7,12,0.9,7
2015/3/25 0:36,0.6,15,0.6,11,0.9,10
2015/3/25 0:37,0.6,15,0.6,11,1.6,12
2015/3/25 0:38,0.7,15,0.7,11,1.5,1
2015/3/25 0:39,0.7,16,0.7,11,1.9,2
2015/3/25 0:40,0.9,16,0.9,11,3.7,1
2015/3/25 0:41,1.1,16,1.1,11,4.7,16
2015/3/25 0:42,1.3,16,1.3,16,3.2,16
2015/3/25 0:43,1.4,16,1.4,16,2.5,16
2015/3/25 0:44,1.5,16,1.5,16,2.4,16
2015/3/25 0:45,1.6,16,1.6,16,2.4,16
2015/3/25 0:46,1.7,16,1.7,16,2.4,15
2015/3/25 0:47,1.8,16,1.8,16,3.2,16
2015/3/25 0:48,1.9,16,1.9,16,3.9,16
2015/3/25 0:49,2.1,16,2.1,16,4.2,15
2015/3/25 0:50,2,16,2.1,16,3.5,1
2015/3/25 0:51,1.8,16,2,16,2.2,16
2015/3/25 0:52,1.8,16,1.9,16,6,2
2015/3/25 0:53,1.9,16,1.9,16,4.1,2
2015/3/25 0:54,2,16,2,16,3.3,3
2015/3/25 0:55,1.9,16,1.9,16,1.8,12
2015/3/25 0:56,1.8,16,1.9,16,1.4,16
2015/3/25 0:57,1.8,15,1.8,16,2,12
2015/3/25 0:58,1.6,15,1.8,16,1.1,12
2015/3/25 0:59,1.5,14,1.6,16,1.4,12
2015/3/25 1:00,1.4,14,1.5,16,1.9,10
2015/3/25 1:01,1.5,13,1.5,16,1.8,9
2015/3/25 1:02,1.2,12,1.4,16,1.3,6
2015/3/25 1:03,1,12,1.2,16,0.4,13
2015/3/25 1:04,0.9,12,1,16,0.9,15
2015/3/25 1:05,0.8,12,0.9,16,1.3,16
2015/3/25 1:06,0.7,12,0.8,16,0.4,1
2015/3/25 1:07,0.6,12,0.7,15,0.6,7
2015/3/25 1:08,0.6,9,0.6,15,1.9,8
2015/3/25 1:09,0.6,7,0.6,14,2,8
2015/3/25 1:10,0.5,6,0.6,13,0.9,13
2015/3/25 1:11,0.5,2,0.5,13,1.8,16
2015/3/25 1:12,0.6,1,0.6,12,2.1,15
2015/3/25 1:13,0.7,16,0.7,12,2.1,16
2015/3/25 1:14,0.9,15,0.9,12,1.9,13
2015/3/25 1:15,1,13,1,13,2.6,12
2015/3/25 1:16,1.2,12,1.2,12,3,10
2015/3/25 1:17,1.4,12,1.4,12,3,9
2015/3/25 1:18,1.4,12,1.4,12,3,9
2015/3/25 1:19,1.4,12,1.4,12,2.6,9
2015/3/25 1:20,1.5,12,1.5,12,2.2,9
2015/3/25 1:21,1.5,11,1.5,12,1.6,10
2015/3/25 1:22,1.4,11,1.5,12,1.8,1
2015/3/25 1:23,1.3,11,1.4,12,1.8,16
2015/3/25 1:24,1.3,11,1.4,12,2.1,16
2015/3/25 1:25,1.3,12,1.3,12,1.9,1
2015/3/25 1:26,1.2,13,1.3,12,2.2,15
2015/3/25 1:27,1.2,14,1.2,12,2.2,14
2015/3/25 1:28,1.1,14,1.2,12,1.3,9
2015/3/25 1:29,1.1,14,1.1,12,2.1,8
2015/3/25 1:30,1.2,14,1.2,12,3.5,8
2015/3/25 1:31,1.2,14,1.2,11,1.4,13
2015/3/25 1:32,1.2,14,1.2,11,1.3,12
2015/3/25 1:33,1.2,14,1.2,11,2,16
2015/3/25 1:34,1.1,14,1.2,11,1.1,4
2015/3/25 1:35,1,13,1.1,12,0.8,16
2015/3/25 1:36,1,12,1.1,13,2.4,7
2015/3/25 1:37,1,10,1,14,1.1,9
2015/3/25 1:38,0.9,11,1,14,0.8,12
2015/3/25 1:39,1.1,13,1.1,14,4.7,15
2015/3/25 1:40,1.2,14,1.2,14,4.5,16
2015/3/25 1:41,1.2,15,1.3,15,3.2,15
2015/3/25 1:42,1.3,15,1.3,15,2.6,7
2015/3/25 1:43,1.5,13,1.5,13,4.3,8
2015/3/25 1:44,1.8,10,1.8,11,6.7,8
2015/3/25 1:45,1.9,8,1.9,8,3,9
2015/3/25 1:46,1.8,8,1.9,8,1.9,9
2015/3/25 1:47,1.8,9,1.8,8,1.6,10
2015/3/25 1:48,1.9,9,1.9,8,2,11
2015/3/25 1:49,1.8,10,1.9,8,2.4,15
2015/3/25 1:50,1.7,10,1.7,8,3.6,15
2015/3/25 1:51,1.9,10,1.9,8,3.9,13
2015/3/25 1:52,2,11,2,11,3.7,12
2015/3/25 1:53,2.1,11,2.1,11,4.3,10
2015/3/25 1:54,1.8,11,2,11,3.3,9
2015/3/25 1:55,1.8,12,1.8,11,3.2,10
2015/3/25 1:56,1.9,12,1.9,11,3.3,15
2015/3/25 1:57,2.2,12,2.2,12,4.5,15
2015/3/25 1:58,2.3,13,2.3,13,4.3,15
2015/3/25 1:59,2.4,12,2.4,13,3.3,10
2015/3/25 2:00,2.3,12,2.4,13,3.6,9
2015/3/25 2:01,2.3,11,2.3,13,3.6,10
2015/3/25 2:02,2.3,11,2.3,13,3.7,11
2015/3/25 2:03,2.2,11,2.3,13,3.2,11
2015/3/25 2:04,2.3,12,2.3,13,3.5,9
2015/3/25 2:05,2.4,12,2.4,13,3.9,11
2015/3/25 2:06,2.5,11,2.5,11,3.9,11
2015/3/25 2:07,2.5,11,2.5,11,4.2,9
2015/3/25 2:08,2.5,11,2.5,11,4.2,10
2015/3/25 2:09,2.5,11,2.5,11,2.2,10
2015/3/25 2:10,2.4,11,2.4,11,2.2,13
2015/3/25 2:11,2.3,11,2.4,11,2.5,16
2015/3/25 2:12,2.2,12,2.3,11,2.1,14
2015/3/25 2:13,2,12,2.1,11,1.5,12
2015/3/25 2:14,1.9,12,2,11,1,11
2015/3/25 2:15,1.7,12,1.9,11,1.4,13
2015/3/25 2:16,1.5,12,1.7,11,0.9,11
2015/3/25 2:17,1.3,12,1.4,11,1.5,8
2015/3/25 2:18,1.1,11,1.2,11,1.5,7
2015/3/25 2:19,1,11,1.1,11,2,8
2015/3/25 2:20,0.9,10,1,11,1,10
2015/3/25 2:21,0.8,10,0.9,11,0.6,6
2015/3/25 2:22,0.9,9,0.9,12,3.2,7
2015/3/25 2:23,1,9,1,12,3.3,8
2015/3/25 2:24,1.1,9,1.1,12,2.7,12
2015/3/25 2:25,1.2,9,1.2,12,3.5,13
2015/3/25 2:26,1.4,9,1.4,12,3.1,13
2015/3/25 2:27,1.4,10,1.4,9,1.8,15
2015/3/25 2:28,1.4,12,1.4,9,1.9,16
2015/3/25 2:29,1.4,12,1.4,9,2.4,10
2015/3/25 2:30,1.5,11,1.5,12,2.7,10
2015/3/25 2:31,1.8,11,1.8,11,3.5,9
2015/3/25 2:32,1.7,11,1.8,11,3.1,9
2015/3/25 2:33,1.5,11,1.7,11,2.4,10
2015/3/25 2:34,1.5,11,1.5,11,1.6,9
2015/3/25 2:35,1.3,10,1.4,11,2.4,8
2015/3/25 2:36,1.2,10,1.2,11,1.4,11
2015/3/25 2:37,1.2,9,1.2,11,3.6,10
2015/3/25 2:38,1.4,9,1.4,11,3.5,12
2015/3/25 2:39,1.5,10,1.5,11,2.5,11
2015/3/25 2:40,1.5,10,1.5,11,3,12
2015/3/25 2:41,1.5,11,1.5,11,3.6,13
2015/3/25 2:42,1.5,10,1.5,11,2.5,13
2015/3/25 2:43,1.6,11,1.6,11,3.6,8
2015/3/25 2:44,1.7,11,1.7,10,3.6,8
2015/3/25 2:45,1.7,11,1.7,10,2.6,9
2015/3/25 2:46,1.7,11,1.7,10,0.8,4
2015/3/25 2:47,1.4,11,1.6,10,0.5,8
2015/3/25 2:48,1.3,11,1.4,10,1,14
2015/3/25 2:49,1.2,11,1.3,10,2.1,16
2015/3/25 2:50,1.2,12,1.2,10,2.4,1
2015/3/25 2:51,1,12,1.2,10,1.9,1
2015/3/25 2:52,0.9,15,1,10,0.5,15
2015/3/25 2:53,0.8,16,0.9,10,0.3,15
2015/3/25 2:54,0.7,16,0.8,11,1.3,16
2015/3/25 2:55,0.7,16,0.7,11,2.1,15
2015/3/25 2:56,0.8,16,0.8,11,2.2,15
2015/3/25 2:57,0.8,16,0.8,11,1,11
2015/3/25 2:58,0.9,16,0.9,11,2.1,10
2015/3/25 2:59,1,15,1,11,3.2,10
2015/3/25 3:00,1,14,1,12,3,11
2015/3/25 3:01,1.1,13,1.1,14,2.2,13
2015/3/25 3:02,1.3,13,1.3,13,2,13
2015/3/25 3:03,1.4,12,1.4,13,1.8,11
2015/3/25 3:04,1.4,12,1.4,13,1.8,8
2015/3/25 3:05,1.5,12,1.5,12,1.9,11
2015/3/25 3:06,1.5,11,1.5,12,2.5,14
2015/3/25 3:07,1.5,12,1.5,12,1.8,15
2015/3/25 3:08,1.5,12,1.5,12,2,9
2015/3/25 3:09,1.4,11,1.5,12,1.8,9
2015/3/25 3:10,1.3,12,1.4,12,2.4,13
2015/3/25 3:11,1.3,12,1.3,12,2.4,13
2015/3/25 3:12,1.2,12,1.3,12,1.5,14
2015/3/25 3:13,1.1,12,1.2,12,0.4,3
2015/3/25 3:14,1.1,12,1.1,12,1.8,9
2015/3/25 3:15,1,12,1.1,12,2,9
2015/3/25 3:16,0.9,12,1,11,1.5,8
2015/3/25 3:17,0.9,11,0.9,12,0.8,2
2015/3/25 3:18,0.8,12,0.9,12,1.6,1
2015/3/25 3:19,0.8,13,0.8,11,1.3,5
2015/3/25 3:20,0.8,12,0.8,12,2.6,8
2015/3/25 3:21,0.9,8,0.9,12,3.3,8
2015/3/25 3:22,1,7,1,12,2.1,7
2015/3/25 3:23,1.1,7,1.1,12,2.7,1
2015/3/25 3:24,1.1,5,1.1,12,2.2,16
2015/3/25 3:25,1.1,5,1.1,7,1,14
2015/3/25 3:26,1.2,4,1.2,4,3.3,1
2015/3/25 3:27,1.3,3,1.3,3,2.2,16
2015/3/25 3:28,1.2,4,1.3,3,1.6,8
2015/3/25 3:29,1.2,5,1.2,3,2,6
2015/3/25 3:30,1.2,3,1.2,3,2.4,7
2015/3/25 3:31,1.1,2,1.2,3,3.3,2
2015/3/25 3:32,1.1,2,1.1,3,3.2,3
2015/3/25 3:33,1.1,2,1.1,3,1.9,1
2015/3/25 3:34,1.1,2,1.1,3,1.5,1
2015/3/25 3:35,1.2,2,1.2,3,2.9,3
2015/3/25 3:36,1.2,3,1.2,3,3.2,3
2015/3/25 3:37,1.2,3,1.2,3,2.1,4
2015/3/25 3:38,1.2,3,1.2,4,2.2,16
2015/3/25 3:39,1.3,2,1.3,3,2,1
2015/3/25 3:40,1.3,2,1.3,3,1.4,1
2015/3/25 3:41,1.2,2,1.3,3,1.3,2
2015/3/25 3:42,1.2,2,1.2,3,2.4,4
2015/3/25 3:43,1.3,2,1.3,3,2.4,3
2015/3/25 3:44,1.4,2,1.4,2,2.2,1
2015/3/25 3:45,1.4,2,1.4,2,2.5,2
2015/3/25 3:46,1.4,2,1.4,2,2.6,3
2015/3/25 3:47,1.5,2,1.5,2,2.6,4
2015/3/25 3:48,1.6,2,1.6,2,2.4,4
2015/3/25 3:49,1.6,2,1.6,2,3.2,1
2015/3/25 3:50,1.6,2,1.6,2,2,4
2015/3/25 3:51,1.7,3,1.7,2,2.7,2
2015/3/25 3:52,1.6,3,1.7,2,1.8,2
2015/3/25 3:53,1.5,3,1.6,2,1.6,16
2015/3/25 3:54,1.5,3,1.5,2,1.9,7
2015/3/25 3:55,1.4,3,1.5,2,1.4,4
2015/3/25 3:56,1.3,3,1.4,2,2,5
2015/3/25 3:57,1.3,4,1.3,2,2.6,5
2015/3/25 3:58,1.3,4,1.3,2,2.5,6
2015/3/25 3:59,1.1,4,1.2,2,1,15
2015/3/25 4:00,1.1,4,1.1,2,0.8,13
2015/3/25 4:01,1,5,1,3,2.2,6
2015/3/25 4:02,1,5,1,3,1.8,5
2015/3/25 4:03,1,4,1,3,1.1,2
2015/3/25 4:04,0.9,4,1,3,1.1,2
2015/3/25 4:05,0.9,4,0.9,3,1.3,16
2015/3/25 4:06,0.8,3,0.9,3,0.8,2
2015/3/25 4:07,0.7,4,0.8,4,0.9,7
2015/3/25 4:08,0.6,3,0.6,4,1.6,15
2015/3/25 4:09,0.7,2,0.7,4,2.1,14
2015/3/25 4:10,0.7,1,0.7,4,1.5,14
2015/3/25 4:11,0.7,2,0.7,5,1.5,8
2015/3/25 4:12,0.8,2,0.8,5,1.8,6
2015/3/25 4:13,0.8,3,0.8,4,1.5,5
2015/3/25 4:14,0.7,5,0.8,4,0.9,6
2015/3/25 4:15,0.7,8,0.7,3,1,12
2015/3/25 4:16,0.8,11,0.8,3,1.8,16
2015/3/25 4:17,0.8,14,0.8,2,1.9,16
2015/3/25 4:18,0.8,1,0.9,15,1.5,1
2015/3/25 4:19,0.8,5,0.9,15,1.9,8
2015/3/25 4:20,0.9,6,0.9,15,2.1,8
2015/3/25 4:21,0.9,7,1,7,1.3,9
2015/3/25 4:22,0.8,8,0.9,7,0.5,13
2015/3/25 4:23,0.7,8,0.8,7,0.6,4
2015/3/25 4:24,0.8,3,0.8,7,2.4,1
2015/3/25 4:25,0.9,3,0.9,7,2.4,16
2015/3/25 4:26,0.9,3,0.9,7,1.1,11
2015/3/25 4:27,0.8,4,0.9,7,0.8,14
2015/3/25 4:28,0.8,5,0.8,7,0.8,14
2015/3/25 4:29,0.7,15,0.8,7,1.4,12
2015/3/25 4:30,0.7,15,0.7,7,1.1,13
2015/3/25 4:31,0.7,15,0.7,7,1.5,13
2015/3/25 4:32,0.8,15,0.8,2,1.5,14
2015/3/25 4:33,0.9,14,0.9,2,1.4,10
2015/3/25 4:34,0.9,13,0.9,2,1.5,9
2015/3/25 4:35,0.8,12,0.9,3,1.3,9
2015/3/25 4:36,0.7,12,0.8,3,0.5,10
2015/3/25 4:37,0.8,12,0.8,15,1.5,10
2015/3/25 4:38,0.8,12,0.8,15,1.6,13
2015/3/25 4:39,0.9,12,0.9,15,1.5,13
2015/3/25 4:40,1,12,1,12,2,11
2015/3/25 4:41,1,11,1,12,2.1,14
2015/3/25 4:42,1,11,1,12,2,10
2015/3/25 4:43,1.1,10,1.1,11,2.4,10
2015/3/25 4:44,1,10,1.1,11,2.2,9
2015/3/25 4:45,1,11,1,11,0.3,15
2015/3/25 4:46,1,11,1,11,1.1,10
2015/3/25 4:47,1.2,11,1.2,11,3.2,9
2015/3/25 4:48,1.2,11,1.2,11,2.5,9
2015/3/25 4:49,1.4,10,1.4,10,3.3,10
2015/3/25 4:50,1.3,10,1.4,10,3.5,10
2015/3/25 4:51,1.3,10,1.3,10,2.7,8
2015/3/25 4:52,1.3,10,1.3,10,4.3,10
2015/3/25 4:53,1.4,10,1.4,10,3.1,10
2015/3/25 4:54,1.5,10,1.5,10,2.7,8
2015/3/25 4:55,1.6,10,1.6,10,3.1,9
2015/3/25 4:56,1.8,10,1.8,10,3.3,10
2015/3/25 4:57,1.7,10,1.8,10,2.2,12
2015/3/25 4:58,1.8,10,1.8,10,2.7,13
2015/3/25 4:59,1.7,11,1.8,10,3.1,12
2015/3/25 5:00,1.8,11,1.8,10,3,12
2015/3/25 5:01,1.8,11,1.8,10,1.3,10
2015/3/25 5:02,1.6,11,1.8,10,1.5,9
2015/3/25 5:03,1.5,11,1.6,10,1.8,12
2015/3/25 5:04,1.5,12,1.5,10,2.4,16
2015/3/25 5:05,1.6,12,1.6,10,3.7,16
2015/3/25 5:06,1.6,13,1.6,10,3.5,15
2015/3/25 5:07,1.6,13,1.6,10,3,15
2015/3/25 5:08,1.5,14,1.6,10,1.8,16
2015/3/25 5:09,1.3,14,1.5,11,1.6,16
2015/3/25 5:10,1.2,15,1.3,11,0.6,16
2015/3/25 5:11,1.2,16,1.2,11,1.3,16
2015/3/25 5:12,1.2,16,1.2,11,1.1,16
2015/3/25 5:13,1.1,16,1.2,12,0.3,3
2015/3/25 5:14,1,16,1,12,1.6,8
2015/3/25 5:15,0.9,16,1,12,1.5,9
2015/3/25 5:16,0.9,15,0.9,13,2.1,11
2015/3/25 5:17,1,14,1,13,2.1,12
2015/3/25 5:18,1,13,1,14,2.7,9
2015/3/25 5:19,1.1,12,1.1,14,3.8,9
2015/3/25 5:20,1.1,10,1.1,15,2.1,8
2015/3/25 5:21,1.3,10,1.3,10,3.5,9
2015/3/25 5:22,1.3,10,1.3,10,2.7,11
2015/3/25 5:23,1.5,10,1.5,10,3.5,15
2015/3/25 5:24,1.6,11,1.6,11,3.1,14
2015/3/25 5:25,1.7,11,1.7,11,2.6,12
2015/3/25 5:26,1.7,11,1.7,11,2.6,10
2015/3/25 5:27,1.7,11,1.7,11,3.1,10
2015/3/25 5:28,1.6,11,1.7,11,2.7,9
2015/3/25 5:29,1.6,11,1.6,11,1.6,9
2015/3/25 5:30,1.6,11,1.6,11,1.9,13
2015/3/25 5:31,1.6,12,1.6,11,2.1,13
2015/3/25 5:32,1.5,12,1.5,11,0.9,16
2015/3/25 5:33,1.4,12,1.5,11,1.1,13
2015/3/25 5:34,1.2,12,1.3,11,1.1,14
2015/3/25 5:35,1.2,12,1.2,11,1.8,13
2015/3/25 5:36,1.2,12,1.2,11,2.5,9
2015/3/25 5:37,1.3,12,1.3,11,2.9,12
2015/3/25 5:38,1.4,12,1.4,11,3.7,9
2015/3/25 5:39,1.4,12,1.4,11,2.4,9
2015/3/25 5:40,1.4,12,1.5,11,2.5,9
2015/3/25 5:41,1.3,11,1.4,12,0.3,4
2015/3/25 5:42,1.2,11,1.3,12,0.1,12
2015/3/25 5:43,1.2,12,1.2,12,0.9,14
2015/3/25 5:44,1.1,11,1.2,12,0.6,14
2015/3/25 5:45,1,11,1.1,12,0.5,5
2015/3/25 5:46,0.9,10,1,12,0.6,6
2015/3/25 5:47,0.7,11,0.8,12,1.4,16
2015/3/25 5:48,0.4,12,0.6,12,0.6,3
2015/3/25 5:49,0.3,14,0.4,12,1.6,7
2015/3/25 5:50,0.4,11,0.4,12,2.9,8
2015/3/25 5:51,0.6,9,0.6,11,2.2,8
2015/3/25 5:52,0.6,8,0.6,11,1.5,9
2015/3/25 5:53,0.6,9,0.6,12,1.4,2
2015/3/25 5:54,0.8,7,0.8,11,2.6,1
2015/3/25 5:55,0.9,15,0.9,11,2.2,1
2015/3/25 5:56,1,16,1,15,1.3,2
2015/3/25 5:57,1,8,1,15,1.3,8
2015/3/25 5:58,1.1,8,1.1,8,1.4,8
2015/3/25 5:59,1.2,8,1.2,8,2.1,7
2015/3/25 6:00,1.1,8,1.2,8,2,6
2015/3/25 6:01,1,7,1.1,8,1.4,6
2015/3/25 6:02,1,6,1,8,0.6,3
2015/3/25 6:03,0.9,5,1,8,0.6,6
2015/3/25 6:04,0.9,6,0.9,8,2,6
2015/3/25 6:05,0.9,6,0.9,8,2,7
2015/3/25 6:06,0.9,7,0.9,8,1.5,8
2015/3/25 6:07,0.8,7,0.9,8,0.6,9
2015/3/25 6:08,0.8,8,0.8,8,0.8,11
2015/3/25 6:09,0.6,8,0.8,8,0.5,9
2015/3/25 6:10,0.6,9,0.6,8,1.1,7
2015/3/25 6:11,0.5,9,0.6,7,0.6,15
2015/3/25 6:12,0.5,10,0.5,6,0.6,16
2015/3/25 6:13,0.6,11,0.6,5,0.9,14
2015/3/25 6:14,0.4,12,0.6,6,0.5,11
2015/3/25 6:15,0.3,12,0.4,7,0.5,12
2015/3/25 6:16,0.3,12,0.3,7,1.8,7
2015/3/25 6:17,0.4,12,0.4,7,1.8,6
2015/3/25 6:18,0.4,12,0.4,8,1,15
2015/3/25 6:19,0.4,13,0.5,8,1.3,15
2015/3/25 6:20,0.4,14,0.4,9,1.5,1
2015/3/25 6:21,0.5,14,0.5,10,1.9,15
2015/3/25 6:22,0.6,14,0.6,10,2,15
2015/3/25 6:23,0.6,14,0.6,11,0.6,16
2015/3/25 6:24,0.7,16,0.7,15,1.1,3
2015/3/25 6:25,0.7,1,0.7,15,1.1,3
2015/3/25 6:26,0.6,16,0.7,15,0.5,1
2015/3/25 6:27,0.6,16,0.6,15,0.8,2
2015/3/25 6:28,0.6,16,0.6,15,1.3,15
2015/3/25 6:29,0.7,16,0.7,15,2.6,16
2015/3/25 6:30,0.8,16,0.8,16,2.9,15
2015/3/25 6:31,0.7,16,0.8,16,0.9,15
2015/3/25 6:32,0.7,1,0.7,16,1.8,5
2015/3/25 6:33,0.8,1,0.8,16,2.1,6
2015/3/25 6:34,0.8,1,0.8,16,1.6,6
2015/3/25 6:35,0.8,1,0.8,16,0.9,7
2015/3/25 6:36,0.8,1,0.8,16,0.5,10
2015/3/25 6:37,0.8,2,0.8,16,0.6,6
2015/3/25 6:38,0.8,4,0.8,16,1.3,10
2015/3/25 6:39,0.7,7,0.8,16,1.4,10
2015/3/25 6:40,0.6,7,0.7,16,0.8,9
2015/3/25 6:41,0.6,7,0.6,1,0.8,6
2015/3/25 6:42,0.6,6,0.6,1,1,2
2015/3/25 6:43,0.5,6,0.6,1,1.5,16
2015/3/25 6:44,0.5,5,0.5,1,1.1,3
2015/3/25 6:45,0.5,6,0.5,1,0.9,5
2015/3/25 6:46,0.5,5,0.5,1,1.1,5
2015/3/25 6:47,0.6,4,0.6,2,1.4,3
2015/3/25 6:48,0.7,4,0.7,5,1.4,2
2015/3/25 6:49,0.7,3,0.7,7,1.3,2
2015/3/25 6:50,0.7,3,0.7,4,0.8,12
2015/3/25 6:51,0.8,3,0.8,3,1.8,13
2015/3/25 6:52,0.8,2,0.8,3,1.6,12
2015/3/25 6:53,0.8,2,0.8,3,1.3,14
2015/3/25 6:54,0.9,1,0.9,1,2.2,15
2015/3/25 6:55,1,16,1,16,2.9,16
2015/3/25 6:56,1.1,16,1.1,16,2.4,16
2015/3/25 6:57,1.1,16,1.1,16,1.4,2
2015/3/25 6:58,1.1,16,1.1,16,1.5,2
2015/3/25 6:59,1.1,15,1.1,16,0.9,1
2015/3/25 7:00,1.1,15,1.1,16,0.5,14
2015/3/25 7:01,1,15,1.1,16,1.1,13
2015/3/25 7:02,1,15,1,16,1.1,12
2015/3/25 7:03,1,15,1,16,1.6,8
2015/3/25 7:04,0.9,16,1,16,1.5,8
2015/3/25 7:05,0.7,16,0.9,16,0.9,6
2015/3/25 7:06,0.6,16,0.7,16,1.1,13
2015/3/25 7:07,0.6,13,0.6,16,1.8,13
2015/3/25 7:08,0.7,12,0.7,16,2,12
2015/3/25 7:09,0.8,12,0.8,15,1.9,11
2015/3/25 7:10,0.9,11,0.9,15,2.4,10
2015/3/25 7:11,0.9,10,0.9,15,2.2,8
2015/3/25 7:12,0.8,9,0.9,15,0.9,2
2015/3/25 7:13,0.8,8,0.8,15,2.2,1
2015/3/25 7:14,0.9,14,0.9,16,2,16
2015/3/25 7:15,0.9,13,0.9,11,0.5,1
2015/3/25 7:16,0.9,12,0.9,11,1.3,9
2015/3/25 7:17,0.9,11,0.9,11,2,10
2015/3/25 7:18,0.7,8,0.9,11,0.4,14
2015/3/25 7:19,0.6,5,0.7,11,0.3,5
2015/3/25 7:20,0.5,4,0.6,11,1.3,7
2015/3/25 7:21,0.6,5,0.6,10,2.5,8
2015/3/25 7:22,0.6,6,0.7,8,2,8
2015/3/25 7:23,0.6,7,0.6,8,0.9,15
2015/3/25 7:24,0.5,8,0.6,15,1.3,8
2015/3/25 7:25,0.6,8,0.6,13,2.7,9
2015/3/25 7:26,0.7,8,0.7,12,2.9,9
2015/3/25 7:27,0.7,8,0.7,11,2.7,8
2015/3/25 7:28,0.7,8,0.7,7,1.6,10
2015/3/25 7:29,0.8,9,0.8,8,1.4,12
2015/3/25 7:30,0.8,10,0.8,8,1.1,8
2015/3/25 7:31,0.8,10,0.8,8,3,9
2015/3/25 7:32,0.9,10,0.9,10,2.9,9
2015/3/25 7:33,1,9,1,9,1.9,7
2015/3/25 7:34,1,9,1,9,2.2,8
2015/3/25 7:35,1.1,9,1.1,9,2.2,8
2015/3/25 7:36,1.2,9,1.2,9,4.5,9
2015/3/25 7:37,1.3,9,1.3,9,2.9,9
2015/3/25 7:38,1.3,10,1.3,9,2.1,13
2015/3/25 7:39,1.4,10,1.4,10,3,15
2015/3/25 7:40,1.5,10,1.5,10,2.9,15
2015/3/25 7:41,1.5,10,1.5,10,1,15
2015/3/25 7:42,1.5,10,1.5,10,3.3,8
2015/3/25 7:43,1.6,10,1.6,10,3.3,8
2015/3/25 7:44,1.6,10,1.7,10,3,8
2015/3/25 7:45,1.6,11,1.6,10,1.6,10
2015/3/25 7:46,1.5,12,1.6,10,3.2,15
2015/3/25 7:47,1.6,12,1.6,10,4.2,15
2015/3/25 7:48,1.7,13,1.7,10,2.9,16
2015/3/25 7:49,1.6,12,1.7,10,1.3,14
2015/3/25 7:50,1.4,12,1.5,10,0.9,11
2015/3/25 7:51,1.4,12,1.4,10,1.1,12
2015/3/25 7:52,1.4,12,1.5,10,1.9,14
2015/3/25 7:53,1.3,12,1.4,10,2.1,12
2015/3/25 7:54,1.3,13,1.3,12,2,13
2015/3/25 7:55,1.3,12,1.3,12,2.1,8
2015/3/25 7:56,1.2,12,1.3,12,1.5,9
2015/3/25 7:57,1,12,1.1,12,2.9,11
2015/3/25 7:58,1.1,12,1.1,13,3.3,15
2015/3/25 7:59,1.2,12,1.2,12,4.8,16
2015/3/25 8:00,1.4,12,1.4,12,3.6,6
2015/3/25 8:01,1.4,12,1.4,12,2.9,7
2015/3/25 8:02,1.5,11,1.5,12,4.4,9
2015/3/25 8:03,1.5,11,1.6,11,3.2,9
2015/3/25 8:04,1.5,11,1.5,11,1.5,11
2015/3/25 8:05,1.6,11,1.6,11,2.1,10
2015/3/25 8:06,1.6,11,1.6,11,2,8
2015/3/25 8:07,1.5,10,1.6,11,2.1,8
2015/3/25 8:08,1.4,9,1.5,11,1.9,10
2015/3/25 8:09,1.3,9,1.4,11,2.5,8
2015/3/25 8:10,1.1,10,1.3,11,0.5,16
2015/3/25 8:11,1.1,9,1.1,11,0.9,5
2015/3/25 8:12,0.9,10,1,11,1.5,16
2015/3/25 8:13,0.9,9,0.9,11,1.5,1
2015/3/25 8:14,0.9,7,0.9,11,1.9,5
2015/3/25 8:15,1,7,1,11,3.1,7
2015/3/25 8:16,1.2,7,1.2,11,5.5,8
2015/3/25 8:17,1.4,7,1.4,10,5.8,8
2015/3/25 8:18,1.6,7,1.6,7,5.6,9
2015/3/25 8:19,1.8,7,1.8,7,5.2,9
2015/3/25 8:20,2.1,7,2.1,7,5.4,8
2015/3/25 8:21,2.4,8,2.4,8,5.5,9
2015/3/25 8:22,2.6,8,2.6,8,6.2,8
2015/3/25 8:23,2.9,8,2.9,8,6,8
2015/3/25 8:24,3,8,3,8,5.5,9
2015/3/25 8:25,3.1,9,3.1,9,5.4,9
2015/3/25 8:26,3,9,3.1,9,3.8,9
2015/3/25 8:27,2.7,9,3,9,2.4,8
2015/3/25 8:28,2.6,9,2.7,9,3.3,8
2015/3/25 8:29,2.4,9,2.6,9,2.1,8
2015/3/25 8:30,2.2,9,2.4,9,2.5,8
2015/3/25 8:31,2.3,8,2.3,9,3.8,7
2015/3/25 8:32,2.3,8,2.3,9,3.9,8
2015/3/25 8:33,2.1,8,2.2,9,4.2,8
2015/3/25 8:34,2.1,8,2.1,9,5.1,8
2015/3/25 8:35,1.9,8,2.1,9,2.4,9
2015/3/25 8:36,1.9,7,1.9,9,2.7,5
2015/3/25 8:37,2.1,7,2.1,9,3.8,5
2015/3/25 8:38,2.2,7,2.2,9,4.4,5
2015/3/25 8:39,2.2,7,2.2,9,2.4,4
2015/3/25 8:40,2.2,7,2.2,8,3.5,9
2015/3/25 8:41,2.2,7,2.3,8,3.5,9
2015/3/25 8:42,2,7,2.2,7,3.2,8
2015/3/25 8:43,1.9,7,2,7,1.9,14
2015/3/25 8:44,1.8,7,1.8,7,3,11
2015/3/25 8:45,2,6,2,7,4.2,16
2015/3/25 8:46,2.1,7,2.1,7,3.5,1
2015/3/25 8:47,2,13,2.1,7,3.8,16
2015/3/25 8:48,1.9,14,2,7,3.9,4
2015/3/25 8:49,2.1,16,2.1,7,4.3,5
2015/3/25 8:50,2.3,2,2.3,7,5.8,6
2015/3/25 8:51,2.5,3,2.5,3,6.1,6
2015/3/25 8:52,2.9,3,2.9,3,7.7,7
2015/3/25 8:53,3.2,4,3.2,4,6.5,6
2015/3/25 8:54,3.5,5,3.5,5,6.5,7
2015/3/25 8:55,3.6,5,3.6,5,6.1,7
2015/3/25 8:56,3.5,6,3.6,5,2.9,9
2015/3/25 8:57,3.4,6,3.5,5,4.2,8
2015/3/25 8:58,3.5,7,3.5,5,5.8,10
2015/3/25 8:59,3.5,7,3.5,5,5.4,8
2015/3/25 9:00,3.3,7,3.4,5,3.8,10
2015/3/25 9:01,2.9,8,3.3,5,3.6,9
2015/3/25 9:02,2.6,8,2.9,5,4.5,11
2015/3/25 9:03,2.6,9,2.6,5,5,11
2015/3/25 9:04,2.6,10,2.6,5,5.7,12
2015/3/25 9:05,2.5,11,2.6,6,5.6,12
2015/3/25 9:06,2.5,11,2.6,6,2.9,12
2015/3/25 9:07,2.5,11,2.5,6,2.2,8
2015/3/25 9:08,2.3,11,2.5,7,3.3,7
2015/3/25 9:09,2.2,10,2.3,7,4.4,9
2015/3/25 9:10,2.2,11,2.3,8,3.7,9
2015/3/25 9:11,2.3,11,2.3,8,5,12
2015/3/25 9:12,2.2,11,2.3,8,2.6,12
2015/3/25 9:13,1.9,12,2.2,9,4.2,16
2015/3/25 9:14,1.8,12,1.9,10,4.8,1
2015/3/25 9:15,1.6,13,1.8,11,4.2,13
2015/3/25 9:16,1.5,14,1.6,11,2,13
2015/3/25 9:17,1.6,13,1.6,11,2.7,8
2015/3/25 9:18,1.6,13,1.6,10,4.3,12
2015/3/25 9:19,1.6,14,1.6,10,3.8,14
2015/3/25 9:20,1.7,14,1.7,11,4.8,6
2015/3/25 9:21,1.7,15,1.8,11,3.1,4
2015/3/25 9:22,1.8,15,1.8,11,3.7,9
2015/3/25 9:23,2,13,2,14,7.9,9
2015/3/25 9:24,2.2,10,2.2,11,10.5,7
2015/3/25 9:25,2.3,9,2.3,10,5.6,8
2015/3/25 9:26,2.6,10,2.6,10,5.8,14
2015/3/25 9:27,2.8,10,2.8,10,6.4,14
2015/3/25 9:28,2.9,11,2.9,11,3.7,12
2015/3/25 9:29,3,10,3,11,5.6,12
2015/3/25 9:30,3.2,11,3.2,11,8.4,15
2015/3/25 9:31,3.4,12,3.4,12,8.5,15
2015/3/25 9:32,3.5,12,3.5,12,4.7,14
2015/3/25 9:33,3.6,13,3.7,13,9.5,14
2015/3/25 9:34,3.6,14,3.7,13,8.1,16
2015/3/25 9:35,3.9,14,3.9,14,13,15
2015/3/25 9:36,4.4,15,4.4,15,14,16
2015/3/25 9:37,4.5,15,4.5,15,8.4,15
2015/3/25 9:38,4.3,16,4.4,15,3.1,4
2015/3/25 9:39,4.2,16,4.3,15,5.4,15
2015/3/25 9:40,4.1,16,4.4,15,8.3,15
2015/3/25 9:41,3.9,16,4.1,15,3.8,4
2015/3/25 9:42,3.9,16,4,15,4.4,7
2015/3/25 9:43,3.6,15,3.8,15,3.3,12
2015/3/25 9:44,3.3,15,3.5,15,3.7,12
2015/3/25 9:45,3,15,3.3,15,5,16
2015/3/25 9:46,2.7,15,3,15,10.1,13
2015/3/25 9:47,3,15,3,15,15,15
2015/3/25 9:48,3,15,3,16,2.4,16
2015/3/25 9:49,3.5,15,3.5,16,10.7,16
2015/3/25 9:50,3.6,15,3.6,16,10.3,15
2015/3/25 9:51,4.3,15,4.3,15,12.1,15
2015/3/25 9:52,4.9,15,4.9,15,12.3,15
2015/3/25 9:53,5.6,15,5.6,15,14,15
2015/3/25 9:54,6.3,15,6.3,15,13.8,15
2015/3/25 9:55,7,15,7,15,15.8,15
2015/3/25 9:56,7.2,15,7.2,15,13,15
2015/3/25 9:57,7.2,15,7.2,15,11.4,15
2015/3/25 9:58,7.7,15,7.7,15,9.9,15
2015/3/25 9:59,7.7,15,7.8,15,12.1,15
2015/3/25 10:00,7.9,15,7.9,15,12.2,15
2015/3/25 10:01,7.5,15,7.9,15,6.3,16
2015/3/25 10:02,6.9,15,7.4,15,5.8,15
2015/3/25 10:03,6.3,15,6.9,15,5.2,16
2015/3/25 10:04,5.7,16,6.3,15,3.7,15
2015/3/25 10:05,5.1,16,5.7,15,5.7,16
2015/3/25 10:06,4.6,16,5.1,15,4.9,15
2015/3/25 10:07,4.1,16,4.5,15,4.8,15
2015/3/25 10:08,3.9,16,4.1,15,8.7,14
2015/3/25 10:09,3.8,16,4,15,8.3,15
2015/3/25 10:10,3.4,16,3.7,15,6.5,15
2015/3/25 10:11,3.6,16,3.6,15,8.9,15
2015/3/25 10:12,3.9,15,3.9,15,11.5,14
2015/3/25 10:13,3.9,15,3.9,15,6,16
2015/3/25 10:14,4.3,15,4.3,16,10.7,15
2015/3/25 10:15,4.4,15,4.4,16,6.5,15
2015/3/25 10:16,4.4,15,4.4,16,4.1,15
2015/3/25 10:17,4.2,15,4.3,15,3.2,16
2015/3/25 10:18,4,15,4.2,15,3.7,15
2015/3/25 10:19,3.7,15,4,15,3.7,15
2015/3/25 10:20,3.7,15,3.7,15,4.8,14
2015/3/25 10:21,3.6,15,3.6,15,11.4,15
2015/3/25 10:22,3.3,15,3.6,15,5.1,15
2015/3/25 10:23,3.4,15,3.4,15,9.1,14
2015/3/25 10:24,3.1,15,3.4,15,8.1,14
2015/3/25 10:25,3,15,3.1,15,9,16
2015/3/25 10:26,3.2,15,3.2,15,7.6,16
2015/3/25 10:27,3.2,15,3.2,15,2.9,14
2015/3/25 10:28,3.3,15,3.3,15,4.5,15
2015/3/25 10:29,3.3,15,3.3,15,3.3,1
2015/3/25 10:30,3.2,15,3.3,15,3.8,16
2015/3/25 10:31,3.1,15,3.3,15,6.7,16
2015/3/25 10:32,3,15,3,15,7.6,16
2015/3/25 10:33,3,15,3.1,15,7,16
2015/3/25 10:34,3.1,15,3.1,15,7.4,15
2015/3/25 10:35,3.3,15,3.3,15,9.5,16
2015/3/25 10:36,3.5,15,3.5,15,9.7,15
2015/3/25 10:37,4,15,4,15,10,15
2015/3/25 10:38,4.2,15,4.2,15,8.4,15
2015/3/25 10:39,4.5,15,4.5,15,6.2,15
2015/3/25 10:40,4.7,15,4.7,15,7,16
2015/3/25 10:41,4.7,15,4.7,15,5.1,16
2015/3/25 10:42,4.8,15,4.8,15,7.2,16
2015/3/25 10:43,4.4,15,4.7,15,6.7,14
2015/3/25 10:44,4.3,15,4.4,15,3.9,11
2015/3/25 10:45,4,15,4.2,15,8.5,16
2015/3/25 10:46,3.9,15,4.1,15,7.9,15
2015/3/25 10:47,3.5,15,3.8,15,7.7,15
2015/3/25 10:48,3.5,15,3.6,15,9,15
2015/3/25 10:49,3.5,15,3.6,15,6.4,16
2015/3/25 10:50,3.4,15,3.5,15,7.9,15
2015/3/25 10:51,3.5,15,3.5,15,6.7,15
2015/3/25 10:52,3.5,15,3.6,15,4.3,14
2015/3/25 10:53,3.7,15,3.7,15,6.2,16
2015/3/25 10:54,3.8,15,3.8,15,4.9,1
2015/3/25 10:55,3.6,16,3.8,15,4.7,2
2015/3/25 10:56,3.6,16,3.6,15,5.6,3
2015/3/25 10:57,3.5,16,3.6,15,3.8,4
2015/3/25 10:58,3.4,1,3.5,15,7,2
2015/3/25 10:59,3.3,1,3.4,15,3.9,3
2015/3/25 11:00,3.1,2,3.3,15,4.4,3
2015/3/25 11:01,2.9,2,3,15,3.9,11
2015/3/25 11:02,3,2,3,15,6.9,14
2015/3/25 11:03,2.9,1,3,15,8.7,15
2015/3/25 11:04,2.9,1,2.9,15,6.1,16
2015/3/25 11:05,3,1,3,16,7,15
2015/3/25 11:06,3.1,16,3.1,16,8.1,16
2015/3/25 11:07,3.6,15,3.6,15,11.8,15
2015/3/25 11:08,3.7,15,3.7,15,8.7,14
2015/3/25 11:09,3.8,15,3.8,15,8.3,15
2015/3/25 11:10,4.2,15,4.2,14,8.9,15